This demonstration page uses our WeatherBlox Daily Observations layout. Learn more.

Left ArrowRight Arrow

44.8408, -93.29828

Hourly Observations for November 10, 2021

Temp ( °F °C ) Dew Point ( °F °C ) Humidity (%) Winds ( mph kmh ) Pressure ( in mb ) Visibility ( mi km ) Precip ( " mm )
12:53 am 00:53 Clear 38 3.3 26 -3.3 62 62 Calm 30.16 1021 10 16 0.00 0.00
1:53 am 01:53 Mostly Clear 36 2.2 26 -3.3 67 67 Calm 30.16 1021 10 16 0.00 0.00
2:53 am 02:53 Mostly Cloudy 36 2.2 25 -3.9 64 64 Calm 30.14 1021 10 16 0.00 0.00
3:53 am 03:53 Mostly Cloudy 36 2.2 27 -2.8 70 70 E 5 7 30.12 1020 10 16 0.00 0.00
4:53 am 04:53 Mostly Cloudy 38 3.3 27 -2.8 65 65 ESE 6 9 30.11 1020 10 16 0.00 0.00
5:53 am 05:53 Mostly Cloudy 38 3.3 27 -2.8 65 65 SE 6 9 30.10 1019 10 16 0.00 0.00
6:53 am 06:53 Cloudy 39 3.9 27 -2.8 62 62 ESE 10 17 30.08 1019 10 16 0.00 0.00
7:53 am 07:53 Cloudy 41 5 27 -2.8 57 57 ESE 12 19 30.08 1019 10 16 0.00 0.00
8:53 am 08:53 Cloudy 42 5.6 28 -2.2 58 58 SE 10 17 30.07 1018 10 16 0.00 0.00
9:24 am 09:24 Cloudy 43 6.1 29 -1.7 58 58 SE 13 20 30.05 1018 10 16 0.00 0.00
9:40 am 09:40 Cloudy 44 6.7 31 -0.6 60 60 ESE 13 20 30.04 1017 10 16 0.00 0.00
9:53 am 09:53 Cloudy 44 6.7 31 -0.6 60 60 ESE 13 20 30.03 1017 10 16 0.00 0.00
10:53 am 10:53 Cloudy 47 8.3 32 0 56 56 ESE 13 20 30.01 1016 10 16 0.00 0.00
11:53 am 11:53 Cloudy 49 9.4 33 0.6 55 55 ESE 15 24 29.97 1015 10 16 0.00 0.00
12:53 pm 12:53 Cloudy 52 11.1 33 0.6 49 49 ESE 12 19 29.94 1014 10 16 0.00 0.00
1:42 pm 13:42 Mostly Cloudy 53 11.7 32 0 45 45 E 13 20 29.88 1012 10 16 0.00 0.00
1:53 pm 13:53 Mostly Cloudy 54 12.2 31 -0.6 42 42 ESE 12 19 29.89 1012 10 16 0.00 0.00
2:53 pm 14:53 Cloudy 50 10 33 0.6 52 52 E 13 20 29.85 1011 10 16 0.01 0.25
3:53 pm 15:53 Cloudy 52 11.1 29 -1.7 41 41 ESE 22 35 29.81 1009 10 16 0.00 0.00
4:53 pm 16:53 Cloudy with Light Rain 51 10.6 31 -0.6 46 46 SE 18 30 29.78 1009 10 16 0.00 0.00
5:51 pm 17:51 Cloudy with Light Rain 46 8 37 3 71 71 SE 21 33 29.77 1008 7 11 0.01 0.25
5:53 pm 17:53 Cloudy with Light Rain 46 7.8 38 3.3 73 73 SE 20 31 29.77 1008 7 11 0.01 0.25
6:53 pm 18:53 Cloudy with Light Rain 45 7.2 39 3.9 80 80 SE 12 19 29.75 1008 7 11 0.03 0.76
7:53 pm 19:53 Cloudy with Light Rain 44 6.7 40 4.4 85 85 ESE 12 19 29.73 1007 7 11 0.06 1.52
8:24 pm 20:24 Cloudy with Light Rain 44 6.7 41 5 89 89 ESE 13 20 29.73 1007 5 8 0.03 0.76
8:39 pm 20:39 Cloudy with Light Rain 44 6.7 41 5 89 89 ESE 10 17 29.72 1006 5 8 0.04 1.02
8:53 pm 20:53 Cloudy with Light Rain 44 6.7 41 5 89 89 ESE 10 17 29.71 1006 6 10 0.05 1.27
9:53 pm 21:53 Cloudy with Light Rain 44 6.7 42 5.6 93 93 ESE 14 22 29.67 1005 5 8 0.02 0.51
10:53 pm 22:53 Cloudy with Light Rain 44 6.7 42 5.6 93 93 ESE 9 15 29.63 1004 4 6 0.02 0.51
11:53 pm 23:53 Cloudy with Light Rain 44 6.7 42 5.6 93 93 E 7 11 29.60 1002 5 8 0.06 1.52

Powered by AerisWeather